Location: Unspecified
(48.7670°N, 0.0000°E)
Time: 07:48:23
(UTC+00:00)

Altair - Pass Details

Date: 08 October 2020
Orbit: 1502 x 1682 km, 47.2° (Epoch: 20 October)

Event Time Altitude Azimuth Distance (km) Brightness Sun altitude
Rises 18:24:44 0° 288° (WNW) 4,930 11.9 -10.9°
Reaches altitude 10° 18:29:21 10° 270° (W) 3,946 11.2 -11.6°
Maximum altitude 18:35:12 17° 234° (SW) 3,387 10.0 -12.6°
Drops below altitude 10° 18:41:02 10° 198° (SSW) 3,920 9.8 -13.5°
Sets 18:45:38 0° 180° (S) 4,884 10.1 -14.3°
